Location: ?ernice
(48.8383°N, 14.3803°E)
Time: 06:50:00
(UTC+00:00)

DELTA 2 R/B (1) - Pass Details

Date: 23 May 2024
Orbit: 788 x 801 km, 39.6° (Epoch: 15 June)

Event Time Altitude Azimuth Distance (km) Brightness Sun altitude
Exits shadow 00:26:20 31° 189° (S) 1,356 4.2 -17.9°
Maximum altitude 00:26:51 32° 178° (S) 1,340 4.2 -17.8°
Drops below altitude 10° 00:31:42 10° 117° (ESE) 2,349 6.0 -17.5°
Sets 00:34:24 0° 107° (ESE) 3,277 6.9 -17.4°
